Starlink 31497

operational
NORAD ID: 60592 Int'l Des: 2024-150 Owner: SPXS Country: US Constellation: starlink
LEOCIRCULAR

Starlink 31497について

説明を読み込み中...

リアルタイム位置

3D地球を読み込み中...

次回通過

高度履歴

Altitude vs Time

uPlot chart will show altitude changes over time

軌道要素

1 60592U 24150K 25305.95361535 -.00001327 00000-0 -32698-4 0 9993
2 60592 53.1599 180.4048 0001391 91.4592 268.6569 15.30173278 68480
Epoch: Nov 1, 2025 • Age: 48 hours

現在のステータス

高度 475.1 km
速度 7.63 km/s
衛星直下点 12.83°N, 41.45°W
打ち上げ日 Aug 20, 2024
運用期間 1.2 years
タイプ internet

技術仕様

分類 Payload
質量 730.00 kg
乾燥質量 700.00 kg
総質量 730.00 kg
長さ 0.30 m
直径 4.10 m
スパン 29.00 m
形状 Box + pan
製造者 SPXS
バスタイプ Starlink V2M
フェーズステータス In Orbit
所有者/国 SPXS/US

大規模コンステレーション

Loading constellations...